星链-11239 (STARLINK-11239)

导读 | 豆包AI

STARLINK-11239是美国SpaceX星链互联网星座的成员,于2024年8月31日发射升空。作为低轨通信卫星,它归入星链星座组网,为全球尤其是偏远地区提供高速互联网服务,具备低时延、广覆盖的通信特点,推进了星链卫星互联网星座的全球化部署进程。

基本信息
目录编号:
60924
目录名称:
STARLINK-11239
国际标识:
2024-155A
轨道中心:
EARTH
卫星名称:
星链-11239
卫星全名:
星链-11239 (STARLINK-11239)
卫星状态:
在轨 (已飞行607 天)
发射日期:
2024-08-31 UTC
国别 :
美国 (US)
星等 :
--
轨道信息
数据来源 国际轨道数据
星历时间: 2026-04-29T13:14:51+0800
1天前
查看轨道信息
半长轴: 6737.881km
偏心率: 0.0001064
轨道倾角: 53.158°
近地点辐角 79.553°
升交点赤经 92.525°
平近点角 280.561°
近地点: 359.027km
远地点: 360.461km
周期: 91.737分钟
每日圈数: 15.697042
详细信息
固有亮度:
5
最大亮度:
2.5
卫星平台:
Starlink V1.0
覆盖范围:
全球
运营商:
太空探索技术公司
运营商所在国:
美国
制造商(研发单位):
太空探索技术公司
制造商所在国:
美国
使用方式:
暂无
卫星简介
Starlink 计划是 SpaceX 推出的全球卫星互联网项目,通过发射低轨道卫星,为全球尤其是偏远地区提供高速、低延迟的互联网服务。自 2019 年起,Starlink 已部署数千颗卫星,旨在缩小全球数字鸿沟,推动互联网普及。该项目还为军事、航空等行业提供通信支持,带来广泛经济效益。
2D轨道图
3D轨道图
轨道高度分析图
轨道倾角分析图
轨道综合分析图
查看轨道综合分析图